#timestamp,LO_Frequency,Hit,StdDev 
1606762815.8,286046998.8,N
1606762835.6,286046996.5,N
1606762855.5,286046996.8,N
1606762875.3,286046996.5,N
1606762895.1,286046998.6,N
1606762915.9,286046999.0,N
1606762935.7,286046999.5,N
1606762955.5,286046998.3,N
1606762975.4,286046998.6,N
1606762995.2,286046998.1,N
1606763015.0,286046998.7,N
1606763015.9,286046998.7,N
1606763035.8,286046999.1,N
1606763055.6,286046998.9,N
1606763075.4,286046999.0,N
1606763095.3,286046996.9,N
1606763115.1,286046999.4,N
1606763116.0,286046999.4,N
1606763135.8,286046998.1,N
1606763155.7,286047000.7,N
1606763175.5,286046998.4,N
1606763195.3,286046998.8,N
1606763215.2,286046999.6,N
1606763235.9,286046998.9,N
1606763255.7,286046999.1,N
1606763275.6,286046998.2,N
1606763295.4,286047000.6,N
1606763315.2,286046998.2,N
1606763335.1,286046998.7,N
1606763336.0,286046998.7,N
1606763355.8,286047000.8,N
1606763375.6,286046998.1,N
1606763395.5,286046998.2,N
1606763415.3,286046999.0,N
1606763435.1,286046999.4,N
1606763455.9,286046999.3,N
1606763475.7,286046999.6,N
1606763495.5,286046999.1,N
1606763515.4,286046997.3,Y
1606763535.2,286046998.6,P
1606763555.0,286047000.4,N
1606763555.9,286047000.4,N
1606763575.8,286047002.2,N
1606763595.6,286047000.1,N
1606763615.4,286047002.8,N
1606763635.3,286047000.3,N
1606763655.1,286047000.7,N
1606763656.0,286047000.7,N
1606763675.8,286046998.3,N
1606763695.7,286046998.7,N
1606763715.5,286047001.1,N
1606763735.3,286046998.8,N
1606763755.2,286047000.9,N
1606763775.9,286046999.8,N
1606763795.7,286047000.6,N
1606763815.6,286047000.8,N
1606763835.4,286047001.1,N
1606763855.2,286046998.4,N
1606763875.1,286046998.4,N
1606763876.0,286046998.4,N
1606763895.8,286047000.7,N
1606763915.6,286046998.9,N
1606763935.5,286046998.7,N
1606763955.3,286046998.2,N
1606763975.1,286046998.8,N
1606763995.9,286046999.2,N
1606764015.7,286046998.8,N
1606764035.5,286046998.7,N
1606764055.4,286047000.9,N
1606764075.2,286047001.2,N
1606764095.0,286046998.3,N
1606764095.9,286046998.3,N
1606764115.8,286047001.2,N
1606764135.6,286046998.5,N
1606764155.4,286046998.2,N
1606764175.3,286047000.7,N
1606764195.1,286047002.4,N
1606764196.0,286047002.4,N
1606764215.8,286047002.8,N
1606764235.7,286047001.5,N
1606764255.5,286046999.9,N
1606764275.3,286047002.6,N
1606764295.2,286047000.2,N
1606764315.9,286046999.9,N
1606764335.7,286047002.3,N
1606764355.6,286047001.3,N
1606764375.4,286047001.6,N
1606764395.2,286047001.4,N
1606764415.1,286047001.8,N
1606764416.0,286047001.8,N
1606764435.8,286047001.4,N
1606764455.6,286047003.1,N
1606764475.5,286047004.4,N
1606764495.3,286047004.2,N
1606764515.1,286047004.1,N
1606764535.9,286047004.0,N
1606764555.7,286047004.2,N
1606764575.5,286047004.3,N
1606764595.4,286047005.8,Y
1606764615.2,286047004.4,P
1606764635.0,286047003.5,N
1606764635.9,286047003.5,P
1606764655.8,286047005.2,Y
1606764675.6,286047002.2,P
1606764695.4,286047003.9,P
1606764715.3,286047003.6,P
1606764735.1,286047003.7,Y
1606764736.0,286047003.7,P
1606764755.8,286047002.8,P
1606764775.7,286047002.3,P
1606764795.5,286047001.4,N
1606764815.3,286047004.2,Y
1606764835.2,286047000.8,P
1606764855.9,286047002.0,N
1606764875.7,286047001.9,N
1606764895.6,286046999.8,N
1606764915.4,286047002.0,N
1606764935.2,286047001.8,N
1606764955.1,286047001.4,N
1606764956.0,286047001.4,N
1606764975.8,286047004.0,Y
1606764995.6,286046999.8,P
1606765015.5,286046999.9,N
1606765035.3,286046999.8,N
1606765055.1,286047002.0,N
1606765075.9,286047002.0,N
1606765095.7,286047003.9,Y
1606765115.5,286047004.0,P
1606765135.4,286047003.7,N
1606765155.2,286047002.9,N
1606765175.0,286047005.3,Y
1606765175.9,286047005.3,P
1606765195.8,286047003.3,N
1606765215.6,286047005.8,P
1606765235.4,286047004.7,Y
1606765255.3,286047002.2,P
1606765275.1,286047002.4,N
1606765295.8,286046999.7,N
1606765315.7,286047000.1,N
1606765335.5,286046999.8,N
1606765355.3,286047001.4,N
1606765375.2,286047001.3,N
1606765395.0,286047003.5,N
1606765395.9,286047003.5,N
1606765415.7,286047001.3,N
1606765435.6,286047004.1,N
1606765455.4,286047003.7,N
1606765475.2,286047003.1,N
1606765495.1,286047003.4,N
1606765496.0,286047003.4,N
1606765515.8,286047006.0,Y
1606765535.6,286047003.8,P
1606765555.5,286047005.8,P
1606765575.3,286047005.1,P
1606765595.1,286047005.0,Y
1606765615.9,286047003.8,P
1606765635.7,286047003.2,P
1606765655.5,286047005.3,P
1606765675.4,286047005.3,Y
1606765695.2,286047002.3,P
1606765715.1,286047005.9,P
1606765716.0,286047005.9,P
1606765735.8,286047003.1,N
1606765755.6,286047004.1,N
1606765775.5,286047004.4,Y
1606765795.3,286047000.8,P
1606765815.1,286047000.9,N
1606765835.9,286047000.6,N
1606765855.7,286047002.2,N
1606765875.5,286047002.5,N
1606765895.4,286047001.8,N
1606765915.2,286047003.6,Y
1606765935.0,286047002.6,P
1606765935.9,286047002.6,P
1606765955.8,286047004.3,P
1606765975.6,286047003.1,Y
1606765995.4,286047003.9,P
1606766015.3,286047003.1,P
1606766035.1,286047001.4,P
1606766036.0,286047001.4,N
1606766055.8,286047004.3,Y
1606766075.7,286047002.4,P
1606766095.5,286047001.9,P
1606766145.4,286047002.9,E
1606766155.3,286047001.7,N
1606766175.1,286047000.9,P
1606766195.8,286047004.3,P
1606766215.7,286047001.5,N
1606766235.5,286047001.3,N
1606766255.3,286047003.6,N
1606766275.2,286047005.4,Y
1606766295.0,286047004.1,P
1606766295.9,286047004.1,P
1606766315.8,286047003.6,P
1606766335.6,286047005.7,Y
1606766355.4,286047004.4,P
1606766375.3,286047001.4,P
1606766395.1,286047005.9,P
1606766396.0,286047005.9,Y
